Regional Weather Roundup
Issued by NWS

Home | Current Version | Previous Version | Graphics & Text | Print | Product List | Glossary On
Versions: 1 2 3 4 5 6 7 8 9 10 11 12 13 14 15 16 17 18 19 20 21 22 23 24 25 26 27 28
000
ASUS45 KPSR 280310
RWRAZ

ARIZONA HOURLY REGIONAL WEATHER ROUNDUP
NATIONAL WEATHER SERVICE PHOENIX AZ
800 PM MST FRI MAY 27 2016

NOTE: FAIR INDICATES FEW OR NO CLOUDS BELOW 12,000 FEET WITH NO
SIGNIFICANT WEATHER AND/OR OBSTRUCTIONS TO VISIBILITY.

AZZ001>003-036-280400-
NORTHWEST ARIZONA

CITY           SKY/WX    TMP DP  RH WIND       PRES   REMARKS
KINGMAN        CLEAR     75  26  16 SW8       29.86R
$$

AZZ004>008-015-016-018-280400-
NORTH CENTRAL ARIZONA

CITY           SKY/WX    TMP DP  RH WIND       PRES   REMARKS
GRAND CANYON   PTCLDY    51  27  39 CALM      30.04R
WILLIAMS       CLOUDY    61  25  25 SW7       30.11R
PRESCOTT       CLEAR     67  25  20 SW8       29.95R
FLAGSTAFF      CLOUDY    53  28  38 W3        30.06R
PAYSON         CLEAR     68  27  21 SW7G13    29.99R
PAGE           MOCLDY    73  31  21 NW8G18    29.88R
$$

AZZ009>014-017-280400-
NORTHEAST ARIZONA

CITY           SKY/WX    TMP DP  RH WIND       PRES   REMARKS
WINSLOW        MOCLDY    70  29  21 N9        29.95R
SAINT JOHNS    CLOUDY    65  27  23 SW10      29.98R
WINDOW ROCK    PTCLDY    58  22  24 SW3       30.02R
SHOW LOW       PTCLDY    57  25  28 S5        30.04R
$$

AZZ023-280400-
GREATER PHOENIX AREA

CITY           SKY/WX    TMP DP  RH WIND       PRES   REMARKS
PHOENIX        CLEAR     88  31  13 W10       29.72R
BUCKEYE        CLEAR     81  37  21 S5        29.75R
GLENDALE       CLEAR     88  32  13 S6        29.74R
LUKE AFB       CLEAR     87  34  15 SW9       29.72R
DEER VALLEY    CLEAR     85  26  11 SW6       29.75R
SCOTTSDALE     CLEAR     86  25  11 SW5       29.77R
MESA-FALCON    CLEAR    N/A N/A N/A CALM      29.73R
MESA-GATEWAY   CLEAR     84  30  14 VRB3      29.76R
CHANDLER       CLEAR     86  28  12 S6        29.75R
$$

AZZ027-028-280400-
SOUTHWEST MARICOPA COUNTY AND PINAL COUNTY

CITY           SKY/WX    TMP DP  RH WIND       PRES   REMARKS
CASA GRANDE    CLEAR     82  28  14 N3        29.78R
GILA BEND      FAIR      86  30  13 NW5       29.73R
$$

AZZ503-504-507>509-280400-
SOUTHEAST ARIZONA

CITY           SKY/WX    TMP DP  RH WIND       PRES   REMARKS
TUCSON         CLEAR     82  25  12 N8        29.84R
DAVIS-MONTHAN  CLEAR     79  25  13 N8        29.83R
RYAN FIELD     CLEAR     79  27  14 NW6       29.83R
NOGALES        CLEAR     73  18  12 SW5       29.91R
SIERRA VISTA   CLEAR     72  12  10 SW9       29.96R
DOUGLAS        CLEAR     69  10  10 NW8       29.91R
SAFFORD        CLEAR     77  20  12 NW10      29.83R
$$

AZZ020-021-025-026-031-280400-
SOUTHWEST ARIZONA

CITY           SKY/WX    TMP DP  RH WIND       PRES   REMARKS
YUMA           CLEAR     87  44  22 SW6       29.72R
$$

CAZ031-033-041-043-047-048-061-280400-
SOUTHERN CALIFORNIA

CITY           SKY/WX    TMP DP  RH WIND       PRES   REMARKS
DOWNTOWN L.A.  CLOUDY    63  56  78 CALM      29.87R
L.A. AIRPORT   MOCLDY    61  55  81 W8        29.88R
SAN DIEGO      CLOUDY    65  54  67 S6        29.90R
BURBANK        CLEAR     63  55  75 S9        29.85R
ONTARIO        PTCLDY    66  54  65 SW15      29.85R
RIVERSIDE      CLEAR     68  54  60 W9        29.85R
PALM SPRINGS   CLEAR     88  46  23 NW15      29.72R
EL CENTRO NAS  CLEAR     86  41  20 SE12      29.71R
IMPERIAL       CLEAR     90  39  16 SE15      29.68R
BLYTHE         CLEAR     90  37  15 SW12      29.70R
NEEDLES        CLEAR     91  29  11 S13       29.70R
$$

NVZ020-UTZ003-280400-
SOUTHERN NEVADA-UTAH

CITY           SKY/WX    TMP DP  RH WIND       PRES   REMARKS
LAS VEGAS      PTCLDY    86  24  10 S5        29.71R
SALT LAKE CITY LGT RAIN  64  43  46 W6G22     29.93R
$$

NMZ009-TXZ055-280400-
NEW MEXICO-WEST TEXAS

CITY           SKY/WX    TMP DP  RH WIND       PRES   REMARKS
ALBUQUERQUE    PTCLDY    70  24  17 NW14      29.94R
EL PASO        PTCLDY    78  14   9 W6        29.88R
$$


........................KEY........................
SKY/WX - SKY CONDITION/WEATHER
TMP    - TEMPERATURE IN FAHRENHEIT
DP     - DEW POINT IN FAHRENHEIT
RH     - RELATIVE HUMIDITY IN PERCENT
WIND   - DIRECTION AND SPEED IN MILES PER HOUR (MPH)
VRB    - VARIABLE WIND DIRECTION
PRES   - MEAN SEA LEVEL PRESSURE IN INCHES OF MERCURY
         F - FALLING PRESSURE   R - RISING PRESSURE
         S - STEADY PRESSURE
VSB    - VISIBILITY IN MILES
HX     - HEAT INDEX IN FAHRENHEIT
WCI    - WIND CHILL INDEX IN FAHRENHEIT
TC     - TEMPERATURE IN CELSIUS WHICH IS ALSO KNOWN AS
         TEMPERATURE IN CENTIGRADE
AFB    - AIR FORCE BASE
         LUKE AFB IS LUKE AIR FORCE BASE
         DAVIS-MONTHAN IS DAVIS-MONTHAN AIR FORCE BASE
NAS    - NAVAL AIR STATION
         EL CENTRO NAS IS EL CENTRO NAVAL AIR STATION
N/A    - NOT AVAILABLE





USA.gov is the U.S. government's official web portal to all federal, state and local government web resources and services.